Time,TemperatureF,DewpointF,PressureIn,WindDirection,WindDirectionDegrees,WindSpeedMPH,WindSpeedGustMPH,Humidity,HourlyPrecipIn,Conditions,Clouds,dailyrainin,SoftwareType,DateUTC
2013-04-21 00:03:00,34.0,25.0,30.34,NW,320,8.0,-999.0,69,-99.99,,,-99.99,,2013-04-21 04:03:00,
2013-04-21 00:12:00,34.0,25.0,30.34,NNW,330,8.0,-999.0,69,-99.99,,,-99.99,,2013-04-21 04:12:00,
2013-04-21 00:23:00,34.0,27.0,30.35,NW,320,7.0,-999.0,74,-99.99,,,-99.99,,2013-04-21 04:23:00,
2013-04-21 00:33:00,34.0,27.0,30.35,NW,310,8.0,-999.0,74,-99.99,,,-99.99,,2013-04-21 04:33:00,
2013-04-21 00:42:00,32.0,27.0,30.35,NW,310,8.0,-999.0,80,-99.99,,,-99.99,,2013-04-21 04:42:00,
2013-04-21 00:52:00,32.0,27.0,30.35,NNW,330,8.0,-999.0,80,-99.99,,,-99.99,,2013-04-21 04:52:00,
2013-04-21 01:02:00,32.0,27.0,30.35,NNW,330,8.0,-999.0,80,-99.99,,,-99.99,,2013-04-21 05:02:00,
2013-04-21 01:12:00,32.0,27.0,30.36,NNW,330,9.0,-999.0,80,-99.99,,,-99.99,,2013-04-21 05:12:00,
2013-04-21 01:22:00,32.0,25.0,30.37,NW,320,7.0,-999.0,74,-99.99,,,-99.99,,2013-04-21 05:22:00,
2013-04-21 01:32:00,32.0,25.0,30.37,NNW,340,6.0,-999.0,74,-99.99,,,-99.99,,2013-04-21 05:32:00,
2013-04-21 01:42:00,32.0,25.0,30.37,NW,320,6.0,-999.0,74,-99.99,,,-99.99,,2013-04-21 05:42:00,
2013-04-21 01:52:00,32.0,25.0,30.37,NNW,340,8.0,-999.0,74,-99.99,,,-99.99,,2013-04-21 05:52:00,
2013-04-21 02:01:00,32.0,25.0,30.37,NNW,340,8.0,-999.0,74,-99.99,,,-99.99,,2013-04-21 06:01:00,
2013-04-21 02:12:00,32.0,23.0,30.37,NNW,330,6.0,-999.0,69,-99.99,,,-99.99,,2013-04-21 06:12:00,
2013-04-21 02:22:00,32.0,23.0,30.38,NNW,330,8.0,-999.0,69,-99.99,,,-99.99,,2013-04-21 06:22:00,
2013-04-21 02:32:00,32.0,23.0,30.38,NNW,330,9.0,-999.0,69,-99.99,,,-99.99,,2013-04-21 06:32:00,
2013-04-21 02:42:00,32.0,23.0,30.38,NNW,340,10.0,-999.0,69,-99.99,,,-99.99,,2013-04-21 06:42:00,
2013-04-21 02:51:00,32.0,23.0,30.39,North,350,7.0,-999.0,69,-99.99,,,-99.99,,2013-04-21 06:51:00,
2013-04-21 03:02:00,32.0,23.0,30.39,North,350,7.0,-999.0,69,-99.99,,,-99.99,,2013-04-21 07:02:00,
2013-04-21 03:12:00,32.0,23.0,30.39,NNW,340,9.0,-999.0,69,-99.99,,,-99.99,,2013-04-21 07:12:00,
2013-04-21 03:21:00,30.0,23.0,30.39,NW,320,8.0,-999.0,74,-99.99,,,-99.99,,2013-04-21 07:21:00,
2013-04-21 03:32:00,30.0,23.0,30.40,NNW,340,6.0,-999.0,74,-99.99,,,-99.99,,2013-04-21 07:32:00,
2013-04-21 03:42:00,30.0,23.0,30.40,NNW,340,7.0,-999.0,74,-99.99,,,-99.99,,2013-04-21 07:42:00,
2013-04-21 03:52:00,30.0,23.0,30.41,NNW,330,5.0,-999.0,74,-99.99,,,-99.99,,2013-04-21 07:52:00,
2013-04-21 04:01:00,30.0,23.0,30.41,NNW,330,5.0,-999.0,74,-99.99,,,-99.99,,2013-04-21 08:01:00,
2013-04-21 04:12:00,30.0,23.0,30.42,North,350,5.0,-999.0,74,-99.99,,,-99.99,,2013-04-21 08:12:00,
2013-04-21 04:21:00,30.0,23.0,30.42,NNW,330,7.0,-999.0,74,-99.99,,,-99.99,,2013-04-21 08:21:00,
2013-04-21 04:32:00,30.0,23.0,30.43,NNW,340,6.0,-999.0,74,-99.99,,,-99.99,,2013-04-21 08:32:00,
2013-04-21 04:42:00,30.0,23.0,30.43,NW,320,5.0,-999.0,74,-99.99,,,-99.99,,2013-04-21 08:42:00,
2013-04-21 04:52:00,30.0,21.0,30.44,NNW,330,5.0,-999.0,68,-99.99,,,-99.99,,2013-04-21 08:52:00,
2013-04-21 05:02:00,30.0,21.0,30.44,NNW,330,5.0,-999.0,68,-99.99,,,-99.99,,2013-04-21 09:02:00,
2013-04-21 05:12:00,30.0,23.0,30.44,North,350,9.0,-999.0,74,-99.99,,,-99.99,,2013-04-21 09:12:00,
2013-04-21 05:21:00,30.0,23.0,30.45,North,360,9.0,-999.0,74,-99.99,,,-99.99,,2013-04-21 09:21:00,
2013-04-21 05:32:00,30.0,23.0,30.45,North,350,7.0,-999.0,74,-99.99,,,-99.99,,2013-04-21 09:32:00,
2013-04-21 05:43:00,30.0,23.0,30.46,North,360,8.0,-999.0,74,-99.99,,,-99.99,,2013-04-21 09:43:00,
2013-04-21 05:52:00,30.0,23.0,30.46,North,10,10.0,-999.0,74,-99.99,,,-99.99,,2013-04-21 09:52:00,
2013-04-21 06:03:00,30.0,23.0,30.46,North,10,10.0,-999.0,74,-99.99,,,-99.99,,2013-04-21 10:03:00,
2013-04-21 06:12:00,30.0,23.0,30.47,NNW,340,9.0,-999.0,74,-99.99,,,-99.99,,2013-04-21 10:12:00,
2013-04-21 06:22:00,30.0,25.0,30.48,North,350,8.0,-999.0,80,-99.99,,,-99.99,,2013-04-21 10:22:00,
2013-04-21 06:32:00,30.0,23.0,30.49,North,350,7.0,-999.0,74,-99.99,,,-99.99,,2013-04-21 10:32:00,
2013-04-21 06:42:00,30.0,23.0,30.49,NNW,340,7.0,-999.0,74,-99.99,,,-99.99,,2013-04-21 10:42:00,
2013-04-21 06:52:00,30.0,23.0,30.51,North,10,8.0,-999.0,74,-99.99,,,-99.99,,2013-04-21 10:52:00,
2013-04-21 07:03:00,30.0,23.0,30.51,North,10,8.0,-999.0,74,-99.99,,,-99.99,,2013-04-21 11:03:00,
2013-04-21 07:12:00,30.0,23.0,30.52,North,10,9.0,-999.0,74,-99.99,,,-99.99,,2013-04-21 11:12:00,
2013-04-21 07:22:00,30.0,23.0,30.53,NW,320,3.0,-999.0,74,-99.99,,,-99.99,,2013-04-21 11:22:00,
2013-04-21 07:34:00,30.0,23.0,30.53,NNW,330,3.0,-999.0,74,-99.99,,,-99.99,,2013-04-21 11:34:00,
2013-04-21 07:42:00,30.0,23.0,30.54,NNE,20,3.0,-999.0,74,-99.99,,,-99.99,,2013-04-21 11:42:00,
2013-04-21 07:52:00,32.0,21.0,30.54,North,10,7.0,-999.0,63,-99.99,,,-99.99,,2013-04-21 11:52:00,
2013-04-21 08:02:00,32.0,21.0,30.54,North,10,7.0,-999.0,63,-99.99,,,-99.99,,2013-04-21 12:02:00,
2013-04-21 08:12:00,32.0,19.0,30.55,North,360,10.0,-999.0,59,-99.99,,,-99.99,,2013-04-21 12:12:00,
2013-04-21 08:22:00,32.0,21.0,30.56,North,360,9.0,-999.0,63,-99.99,,,-99.99,,2013-04-21 12:22:00,
2013-04-21 08:32:00,32.0,21.0,30.56,North,10,9.0,-999.0,63,-99.99,,,-99.99,,2013-04-21 12:32:00,
2013-04-21 08:42:00,32.0,19.0,30.57,North,10,7.0,-999.0,59,-99.99,,,-99.99,,2013-04-21 12:42:00,
2013-04-21 08:52:00,34.0,21.0,30.57,NNW,340,9.0,-999.0,59,-99.99,,,-99.99,,2013-04-21 12:52:00,
2013-04-21 09:01:00,34.0,21.0,30.57,NNW,340,9.0,-999.0,59,-99.99,,,-99.99,,2013-04-21 13:01:00,
2013-04-21 09:12:00,34.0,21.0,30.58,WNW,300,3.0,-999.0,59,-99.99,,,-99.99,,2013-04-21 13:12:00,
2013-04-21 09:21:00,34.0,21.0,30.58,North,360,8.0,-999.0,59,-99.99,,,-99.99,,2013-04-21 13:21:00,
2013-04-21 09:32:00,34.0,19.0,30.58,North,360,8.0,-999.0,55,-99.99,,,-99.99,,2013-04-21 13:32:00,
2013-04-21 09:42:00,34.0,19.0,30.58,NW,320,7.0,-999.0,55,-99.99,,,-99.99,,2013-04-21 13:42:00,
2013-04-21 09:52:00,34.0,21.0,30.59,NW,310,5.0,-999.0,59,-99.99,,,-99.99,,2013-04-21 13:52:00,
2013-04-21 10:02:00,34.0,21.0,30.59,NW,310,5.0,-999.0,59,-99.99,,,-99.99,,2013-04-21 14:02:00,
2013-04-21 10:11:00,34.0,19.0,30.59,NW,320,3.0,-999.0,55,-99.99,,,-99.99,,2013-04-21 14:11:00,
2013-04-21 10:21:00,36.0,21.0,30.60,NNE,20,6.0,-999.0,55,-99.99,,,-99.99,,2013-04-21 14:21:00,
2013-04-21 10:32:00,36.0,21.0,30.61,North,350,8.0,16.0,55,-99.99,,,-99.99,,2013-04-21 14:32:00,
2013-04-21 10:42:00,36.0,19.0,30.61,North,10,8.0,16.0,51,-99.99,,,-99.99,,2013-04-21 14:42:00,
2013-04-21 10:52:00,36.0,21.0,30.61,NNE,30,10.0,-999.0,55,-99.99,,,-99.99,,2013-04-21 14:52:00,
2013-04-21 11:02:00,36.0,21.0,30.61,NNE,30,10.0,-999.0,55,-99.99,,,-99.99,,2013-04-21 15:02:00,
2013-04-21 11:11:00,37.0,19.0,30.61,North,360,10.0,17.0,47,-99.99,,,-99.99,,2013-04-21 15:11:00,
2013-04-21 11:22:00,37.0,21.0,30.61,North,350,7.0,16.0,51,-99.99,,,-99.99,,2013-04-21 15:22:00,
2013-04-21 11:33:00,37.0,21.0,30.61,North,350,12.0,-999.0,51,-99.99,,,-99.99,,2013-04-21 15:33:00,
2013-04-21 11:43:00,37.0,21.0,30.61,North,350,7.0,-999.0,51,-99.99,,,-99.99,,2013-04-21 15:43:00,
2013-04-21 11:53:00,37.0,21.0,30.61,NNW,330,9.0,-999.0,51,-99.99,,,-99.99,,2013-04-21 15:53:00,
2013-04-21 12:03:00,37.0,21.0,30.61,NNW,330,9.0,-999.0,51,-99.99,,,-99.99,,2013-04-21 16:03:00,
2013-04-21 12:12:00,37.0,21.0,30.61,NNW,330,8.0,-999.0,51,-99.99,,,-99.99,,2013-04-21 16:12:00,
2013-04-21 12:23:00,39.0,21.0,30.61,North,10,9.0,-999.0,48,-99.99,,,-99.99,,2013-04-21 16:23:00,
2013-04-21 12:33:00,39.0,21.0,30.61,NNW,340,9.0,17.0,48,-99.99,,,-99.99,,2013-04-21 16:33:00,
2013-04-21 12:42:00,39.0,23.0,30.61,North,350,10.0,18.0,51,-99.99,,,-99.99,,2013-04-21 16:42:00,
2013-04-21 12:52:00,39.0,21.0,30.61,North,10,12.0,21.0,48,-99.99,,,-99.99,,2013-04-21 16:52:00,
2013-04-21 13:02:00,39.0,21.0,30.61,North,10,12.0,21.0,48,-99.99,,,-99.99,,2013-04-21 17:02:00,
2013-04-21 13:12:00,39.0,21.0,30.61,North,350,10.0,16.0,48,-99.99,,,-99.99,,2013-04-21 17:12:00,
2013-04-21 13:23:00,39.0,21.0,30.60,North,360,8.0,-999.0,48,-99.99,,,-99.99,,2013-04-21 17:23:00,
2013-04-21 13:32:00,39.0,19.0,30.60,NNW,340,6.0,-999.0,44,-99.99,,,-99.99,,2013-04-21 17:32:00,
2013-04-21 13:42:00,41.0,21.0,30.60,NNE,20,9.0,-999.0,44,-99.99,,,-99.99,,2013-04-21 17:42:00,
2013-04-21 13:52:00,41.0,21.0,30.60,North,360,7.0,-999.0,44,-99.99,,,-99.99,,2013-04-21 17:52:00,
2013-04-21 14:02:00,41.0,21.0,30.60,North,360,7.0,-999.0,44,-99.99,,,-99.99,,2013-04-21 18:02:00,
2013-04-21 14:11:00,43.0,21.0,30.60,North,350,9.0,-999.0,41,-99.99,,,-99.99,,2013-04-21 18:11:00,
2013-04-21 14:22:00,43.0,21.0,30.60,North,360,8.0,-999.0,41,-99.99,,,-99.99,,2013-04-21 18:22:00,
2013-04-21 14:32:00,43.0,21.0,30.60,North,360,8.0,-999.0,41,-99.99,,,-99.99,,2013-04-21 18:32:00,
2013-04-21 14:42:00,43.0,21.0,30.60,North,360,6.0,-999.0,41,-99.99,,,-99.99,,2013-04-21 18:42:00,
2013-04-21 14:52:00,43.0,19.0,30.60,NNW,340,8.0,-999.0,38,-99.99,,,-99.99,,2013-04-21 18:52:00,
2013-04-21 15:02:00,43.0,19.0,30.60,NNW,340,8.0,-999.0,38,-99.99,,,-99.99,,2013-04-21 19:02:00,
2013-04-21 15:12:00,45.0,21.0,30.59,NNW,340,7.0,-999.0,39,-99.99,,,-99.99,,2013-04-21 19:12:00,
2013-04-21 15:21:00,45.0,21.0,30.59,North,360,7.0,-999.0,39,-99.99,,,-99.99,,2013-04-21 19:21:00,
2013-04-21 15:32:00,45.0,21.0,30.58,North,350,6.0,-999.0,39,-99.99,,,-99.99,,2013-04-21 19:32:00,
2013-04-21 15:42:00,45.0,21.0,30.58,NNE,30,7.0,-999.0,39,-99.99,,,-99.99,,2013-04-21 19:42:00,
2013-04-21 15:52:00,45.0,21.0,30.58,NNE,20,5.0,-999.0,39,-99.99,,,-99.99,,2013-04-21 19:52:00,
2013-04-21 16:02:00,45.0,21.0,30.58,NNE,20,5.0,-999.0,39,-99.99,,,-99.99,,2013-04-21 20:02:00,
2013-04-21 16:11:00,45.0,19.0,30.57,North,350,7.0,-999.0,36,-99.99,,,-99.99,,2013-04-21 20:11:00,
2013-04-21 16:22:00,45.0,19.0,30.57,North,10,8.0,-999.0,36,-99.99,,,-99.99,,2013-04-21 20:22:00,
2013-04-21 16:32:00,45.0,19.0,30.57,NNE,30,8.0,-999.0,36,-99.99,,,-99.99,,2013-04-21 20:32:00,
2013-04-21 16:42:00,45.0,19.0,30.56,North,0,0.0,-999.0,36,-99.99,,,-99.99,,2013-04-21 20:42:00,
2013-04-21 16:52:00,46.0,19.0,30.56,NNE,30,5.0,-999.0,33,-99.99,,,-99.99,,2013-04-21 20:52:00,
2013-04-21 17:02:00,46.0,19.0,30.56,NNE,30,5.0,-999.0,33,-99.99,,,-99.99,,2013-04-21 21:02:00,
2013-04-21 17:12:00,45.0,19.0,30.56,WNW,290,5.0,-999.0,36,-99.99,,,-99.99,,2013-04-21 21:12:00,
2013-04-21 17:21:00,46.0,19.0,30.57,North,360,6.0,10.0,33,-99.99,,,-99.99,,2013-04-21 21:21:00,
2013-04-21 17:33:00,45.0,19.0,30.56,North,360,7.0,-999.0,36,-99.99,,,-99.99,,2013-04-21 21:33:00,
2013-04-21 17:43:00,46.0,19.0,30.56,North,10,5.0,-999.0,33,-99.99,,,-99.99,,2013-04-21 21:43:00,
2013-04-21 17:53:00,46.0,19.0,30.56,NNW,340,6.0,-999.0,33,-99.99,,,-99.99,,2013-04-21 21:53:00,
2013-04-21 18:03:00,46.0,19.0,30.56,NNW,340,6.0,-999.0,33,-99.99,,,-99.99,,2013-04-21 22:03:00,
2013-04-21 18:12:00,46.0,19.0,30.57,NNE,20,6.0,-999.0,33,-99.99,,,-99.99,,2013-04-21 22:12:00,
2013-04-21 18:22:00,46.0,19.0,30.57,NE,40,6.0,-999.0,33,-99.99,,,-99.99,,2013-04-21 22:22:00,
2013-04-21 18:33:00,45.0,18.0,30.57,North,10,3.0,-999.0,33,-99.99,,,-99.99,,2013-04-21 22:33:00,
2013-04-21 18:43:00,45.0,18.0,30.57,North,10,6.0,-999.0,33,-99.99,,,-99.99,,2013-04-21 22:43:00,
2013-04-21 18:52:00,45.0,18.0,30.57,North,350,5.0,-999.0,33,-99.99,,,-99.99,,2013-04-21 22:52:00,
2013-04-21 19:02:00,45.0,18.0,30.57,North,350,5.0,-999.0,33,-99.99,,,-99.99,,2013-04-21 23:02:00,
2013-04-21 19:12:00,45.0,19.0,30.57,NNE,20,6.0,-999.0,36,-99.99,,,-99.99,,2013-04-21 23:12:00,
2013-04-21 19:22:00,45.0,19.0,30.57,NNW,340,5.0,-999.0,36,-99.99,,,-99.99,,2013-04-21 23:22:00,
2013-04-21 19:32:00,45.0,19.0,30.57,North,10,3.0,-999.0,36,-99.99,,,-99.99,,2013-04-21 23:32:00,
2013-04-21 19:42:00,43.0,21.0,30.58,North,360,5.0,-999.0,41,-99.99,,,-99.99,,2013-04-21 23:42:00,
2013-04-21 19:52:00,43.0,23.0,30.58,North,0,0.0,-999.0,45,-99.99,,,-99.99,,2013-04-21 23:52:00,
2013-04-21 20:01:00,43.0,23.0,30.58,North,0,0.0,-999.0,45,-99.99,,,-99.99,,2013-04-22 00:01:00,
2013-04-21 20:11:00,41.0,21.0,30.58,North,0,0.0,-999.0,44,-99.99,,,-99.99,,2013-04-22 00:11:00,
2013-04-21 20:22:00,39.0,27.0,30.58,North,0,0.0,-999.0,60,-99.99,,,-99.99,,2013-04-22 00:22:00,
2013-04-21 20:32:00,39.0,25.0,30.59,North,0,0.0,-999.0,55,-99.99,,,-99.99,,2013-04-22 00:32:00,
2013-04-21 20:42:00,37.0,28.0,30.59,North,0,0.0,-999.0,69,-99.99,,,-99.99,,2013-04-22 00:42:00,
2013-04-21 20:51:00,37.0,30.0,30.59,North,0,0.0,-999.0,74,-99.99,,,-99.99,,2013-04-22 00:51:00,
2013-04-21 21:01:00,37.0,30.0,30.59,North,0,0.0,-999.0,74,-99.99,,,-99.99,,2013-04-22 01:01:00,
2013-04-21 21:12:00,37.0,30.0,30.60,North,0,0.0,-999.0,74,-99.99,,,-99.99,,2013-04-22 01:12:00,
2013-04-21 21:21:00,36.0,30.0,30.60,North,0,0.0,-999.0,80,-99.99,,,-99.99,,2013-04-22 01:21:00,
2013-04-21 21:32:00,36.0,30.0,30.60,North,0,0.0,-999.0,80,-99.99,,,-99.99,,2013-04-22 01:32:00,
2013-04-21 21:42:00,36.0,30.0,30.61,North,0,0.0,-999.0,80,-99.99,,,-99.99,,2013-04-22 01:42:00,
2013-04-21 21:52:00,36.0,28.0,30.61,North,0,0.0,-999.0,74,-99.99,,,-99.99,,2013-04-22 01:52:00,
2013-04-21 22:02:00,36.0,28.0,30.61,North,0,0.0,-999.0,74,-99.99,,,-99.99,,2013-04-22 02:02:00,
2013-04-21 22:11:00,36.0,28.0,30.60,North,0,0.0,-999.0,74,-99.99,,,-99.99,,2013-04-22 02:11:00,
2013-04-21 22:21:00,34.0,28.0,30.61,North,0,0.0,-999.0,80,-99.99,,,-99.99,,2013-04-22 02:21:00,
2013-04-21 22:32:00,34.0,30.0,30.61,North,0,0.0,-999.0,86,-99.99,,,-99.99,,2013-04-22 02:32:00,
2013-04-21 22:42:00,34.0,28.0,30.61,North,0,0.0,-999.0,80,-99.99,,,-99.99,,2013-04-22 02:42:00,
2013-04-21 22:52:00,34.0,27.0,30.61,North,0,0.0,-999.0,74,-99.99,,,-99.99,,2013-04-22 02:52:00,
2013-04-21 23:02:00,34.0,27.0,30.61,North,0,0.0,-999.0,74,-99.99,,,-99.99,,2013-04-22 03:02:00,
2013-04-21 23:11:00,34.0,28.0,30.61,North,0,0.0,-999.0,80,-99.99,,,-99.99,,2013-04-22 03:11:00,
2013-04-21 23:22:00,34.0,27.0,30.61,North,0,0.0,-999.0,74,-99.99,,,-99.99,,2013-04-22 03:22:00,
2013-04-21 23:33:00,32.0,28.0,30.61,North,0,0.0,-999.0,86,-99.99,,,-99.99,,2013-04-22 03:33:00,
2013-04-21 23:43:00,32.0,27.0,30.61,North,0,0.0,-999.0,80,-99.99,,,-99.99,,2013-04-22 03:43:00,
2013-04-21 23:52:00,32.0,28.0,30.61,North,0,0.0,-999.0,86,-99.99,,,-99.99,,2013-04-22 03:52:00,